Regional Weather Roundup
Issued by NWS

Home | Current Version | Previous Version | Graphics & Text | Print | Product List | Glossary On
Versions: 1 2 3 4 5 6 7 8 9 10 11 12 13 14 15 16 17 18 19 20 21 22 23 24 25 26 27 28 29 30 31 32 33 34 35 36 37 38 39 40 41 42 43 44 45 46 47 48 49 50
000
ASUS45 KABQ 251510
RWRNM
NEW MEXICO REGIONAL WEATHER ROUNDUP
NATIONAL WEATHER SERVICE ALBUQUERQUE NM
900 AM MDT SAT MAR 25 2017

NOTE: "FAIR" MEANS FEW OR NO CLOUDS BELOW 12,000 FEET AGL WITH NO
       SIGNIFICANT WEATHER OR OBSTRUCTIONS TO VISION.

      THIS PRODUCT IS RELEASED AS TWO VERSIONS.  ONE VERSION NEAR
      THE TOP OF THE HOUR CONTAINING PRELIMINARY DATA FROM ALBUQUERQUE
      AND OTHER STATIONS.  A FINAL VERSION WITH ADDITIONAL DATA IS
      ISSUED ABOUT 10 MINUTES AFTER THE HOUR.

NMZ501-503-504-510>518-251600-
NORTHWEST PLATEAU/NORTHCENTRAL MOUNTAINS

CITY           SKY/WX    TMP DP  RH WIND       PRES   REMARKS
FARMINGTON     FAIR      39  28  64 SE8       30.12F WCI  33
LOS ALAMOS     FAIR      41  26  55 CALM      30.20S
SANTA FE       FAIR      45  32  60 N15       30.15F
TAOS             N/A     34  25  69 CALM      30.21S
ANGEL FIRE     FAIR      23  22  96 CALM      30.22F

$$
NMZ402-403-502-505>509-251600-
WESTCENTRAL MOUNTAINS/SOUTHWEST MOUNTAINS

CITY           SKY/WX    TMP DP  RH WIND       PRES   REMARKS
GALLUP         FAIR      37  26  64 CALM      30.16S
GRANTS         FAIR      33  23  66 NW5       30.20F WCI  29
SILVER CITY    FAIR      49  25  39 CALM      30.16R

$$
NMZ407-409-411-412-251600-
SOUTHERN DESERTS

CITY           SKY/WX    TMP DP  RH WIND       PRES   REMARKS
DEMING         FAIR      49  29  46 CALM      30.14R
LAS CRUCES     FAIR      53  25  32 SE8       30.15S
HOLLOMAN AFB   FAIR      54  26  34 S7        30.19R
ALAMOGORDO     FAIR      50  25  37 N3        30.17R
T OR C         FAIR      53  22  29 NW5       30.14S

$$
NMZ519>523-251600-
CENTRAL VALLEYS/CENTRAL HIGHLANDS

CITY           SKY/WX    TMP DP  RH WIND       PRES   REMARKS
ALBUQUERQUE    PTSUNNY   46  24  42 N5        30.16S
DOUBLE EAGLE   MOSUNNY   46  23  39 CALM      30.16F
MORIARTY ARPT  FAIR      46  27  48 NW5       30.17F
CLINES CORNERS FAIR      46  25  43 NW22      30.15S
BELEN          FAIR      46  24  42 CALM      30.16S
SOCORRO        FAIR      48  24  38 CALM      30.15S

$$
NMZ524>526-539-540-251600-
SOUTHCENTRAL MOUNTAINS

CITY           SKY/WX    TMP DP  RH WIND       PRES   REMARKS
RUIDOSO        FAIR      50  21  32 CALM      30.21S

$$
NMZ527>531-251600-
NORTHEAST HIGHLANDS/NORTHEAST PLAINS

CITY           SKY/WX    TMP DP  RH WIND       PRES   REMARKS
LAS VEGAS      FAIR      40  28  62 CALM      30.14S
RATON          FAIR      34  28  79 E7        30.12F WCI  28
CLAYTON        FAIR      50  35  56 W10       30.10F

$$
NMZ532>537-251600-
EASTCENTRAL PLAINS

CITY           SKY/WX    TMP DP  RH WIND       PRES   REMARKS
TUCUMCARI      FAIR      47  31  53 CALM      30.12S
CANNON AFB     FAIR      45  31  59 S5        30.15S
CLOVIS AIRPORT FAIR      46  30  53 W7        30.15S

$$
NMZ028-029-538-251600-
SOUTHEAST PLAINS

CITY           SKY/WX    TMP DP  RH WIND       PRES   REMARKS
ROSWELL        FAIR      54  27  35 S13       30.17
ARTESIA        FAIR      54  30  40 S13       30.17F
CARLSBAD       FAIR      56  31  38 S13       30.16F
HOBBS          SUNNY     52  32  46 CALM      30.18F


$$



USA.gov is the U.S. government's official web portal to all federal, state and local government web resources and services.